Location: Elstree
(51.6403°N, 0.2969°W)
Time: 07:37:09
(UTC+00:00)

Envisat - Pass Details

Date: 06 December 2022
Orbit: 763 x 765 km, 98.2° (Epoch: 04 February)

Event Time Altitude Azimuth Distance (km) Brightness Sun altitude
Rises 04:06:27 0° 17° (NNE) 3,247 6.5 -33.7°
Reaches altitude 10° 04:08:49 10° 21° (NNE) 2,316 5.7 -33.3°
Enters shadow 04:11:10 27° 30° (NNE) 1,444 4.6 -33.0°
